When you browse on this site, cookies collect data to enhance your experience and personalize the content and advertising you see.
Visit our Privacy Policy to learn more. By continuing to use the site, you agree to this use of cookies and data.
  • In Österreich
  • Länderverzeichnis
  • Für 7 Tage
  • Wassertemperatur
  • Wetterkarte
  • News
  • Widgets
  • user-avatar
    Anmelden

    Stündliche Wetter Hlybochok

    Heute, 23 September, Montag

    Zeit Temperatur Niederschläge Wind Luftdruck Luftfeuchtigkeit
    00:00 +12°C° 0 mm 1 m/S 738 mmHg 75%
    01:00 +12°C° 0 mm 1 m/S 738 mmHg 77%
    02:00 +11°C° 0 mm 1 m/S 738 mmHg 76%
    03:00 +11°C° 0 mm 1 m/S 738 mmHg 78%
    04:00 +10°C° 0 mm 1 m/S 738 mmHg 80%
    05:00 +10°C° 0 mm 1 m/S 737 mmHg 82%
    06:00 +11°C° 0 mm 1 m/S 738 mmHg 77%
    07:00 +12°C° 0 mm 2 m/S 738 mmHg 73%
    08:00 +14°C° 0 mm 2 m/S 739 mmHg 68%
    09:00 +15°C° 0 mm 2 m/S 739 mmHg 63%
    10:00 +17°C° 0 mm 2 m/S 739 mmHg 57%
    11:00 +19°C° 0 mm 2 m/S 739 mmHg 52%
    12:00 +19°C° 0 mm 2 m/S 739 mmHg 50%
    13:00 +20°C° 0 mm 2 m/S 738 mmHg 47%
    14:00 +21°C° 0 mm 2 m/S 738 mmHg 45%
    15:00 +19°C° 0 mm 3 m/S 738 mmHg 50%
    16:00 +18°C° 0 mm 4 m/S 738 mmHg 55%
    17:00 +16°C° 0 mm 5 m/S 738 mmHg 60%
    18:00 +14°C° 0 mm 5 m/S 738 mmHg 63%
    19:00 +12°C° 0 mm 5 m/S 739 mmHg 66%
    20:00 +9°C° 0 mm 5 m/S 739 mmHg 69%
    21:00 +8°C° 0 mm 5 m/S 739 mmHg 70%
    22:00 +8°C° 0 mm 4 m/S 739 mmHg 71%
    23:00 +7°C° 0 mm 4 m/S 739 mmHg 72%

    Morgen, 24 September, Dienstag

    Zeit Temperatur Niederschläge Wind Luftdruck Luftfeuchtigkeit
    00:00 +7°C° 0 mm 4 m/S 739 mmHg 72%
    01:00 +6°C° 0 mm 4 m/S 740 mmHg 72%
    02:00 +7°C° 0 mm 3 m/S 740 mmHg 72%
    03:00 +5°C° 0 mm 3 m/S 740 mmHg 72%
    04:00 +5°C° 0 mm 3 m/S 739 mmHg 71%
    05:00 +5°C° 0 mm 3 m/S 739 mmHg 70%
    06:00 +7°C° 0 mm 3 m/S 739 mmHg 65%
    07:00 +7°C° 0 mm 4 m/S 739 mmHg 60%
    08:00 +8°C° 0 mm 4 m/S 740 mmHg 55%
    09:00 +11°C° 0 mm 4 m/S 739 mmHg 52%
    10:00 +13°C° 0 mm 4 m/S 739 mmHg 49%
    11:00 +15°C° 0 mm 4 m/S 739 mmHg 45%
    12:00 +17°C° 0 mm 4 m/S 739 mmHg 44%
    13:00 +18°C° 0 mm 4 m/S 739 mmHg 44%
    14:00 +19°C° 0 mm 3 m/S 738 mmHg 43%
    15:00 +19°C° 0 mm 3 m/S 738 mmHg 45%
    16:00 +19°C° 0 mm 3 m/S 738 mmHg 47%
    17:00 +18°C° 0 mm 2 m/S 737 mmHg 49%
    18:00 +16°C° 0 mm 3 m/S 737 mmHg 54%
    19:00 +13°C° 0 mm 3 m/S 737 mmHg 58%
    20:00 +11°C° 0 mm 3 m/S 738 mmHg 62%
    21:00 +11°C° 0 mm 4 m/S 738 mmHg 62%
    22:00 +10°C° 0 mm 4 m/S 738 mmHg 61%
    23:00 +10°C° 0 mm 4 m/S 738 mmHg 60%

    übermorgen, 25 September, Mittwoch

    Zeit Temperatur Niederschläge Wind Luftdruck Luftfeuchtigkeit
    00:00 +8°C° 0 mm 4 m/S 738 mmHg 59%
    01:00 +8°C° 0 mm 4 m/S 737 mmHg 58%
    02:00 +9°C° 0 mm 3 m/S 737 mmHg 57%
    03:00 +8°C° 0 mm 3 m/S 737 mmHg 59%
    04:00 +8°C° 0 mm 3 m/S 737 mmHg 62%
    05:00 +8°C° 0 mm 3 m/S 737 mmHg 64%
    06:00 +10°C° 0 mm 3 m/S 737 mmHg 67%
    07:00 +11°C° 0 mm 4 m/S 737 mmHg 70%
    08:00 +13°C° 0 mm 4 m/S 737 mmHg 73%
    09:00 +15°C° 0 mm 5 m/S 737 mmHg 67%
    10:00 +17°C° 0 mm 5 m/S 737 mmHg 61%
    11:00 +20°C° 0 mm 6 m/S 737 mmHg 55%
    12:00 +21°C° 0 mm 6 m/S 736 mmHg 51%
    13:00 +21°C° 0 mm 6 m/S 736 mmHg 47%
    14:00 +22°C° 0 mm 6 m/S 736 mmHg 43%
    15:00 +21°C° 0 mm 5 m/S 735 mmHg 46%
    16:00 +20°C° 0 mm 4 m/S 735 mmHg 48%
    17:00 +20°C° 0 mm 3 m/S 735 mmHg 51%
    18:00 +18°C° 0.4 mm 3 m/S 735 mmHg 63%
    19:00 +16°C° 0.4 mm 2 m/S 735 mmHg 76%
    20:00 +15°C° 0.4 mm 2 m/S 735 mmHg 88%
    21:00 +15°C° 0.5 mm 2 m/S 735 mmHg 90%
    22:00 +14°C° 0.5 mm 3 m/S 735 mmHg 91%
    23:00 +14°C° 0.5 mm 3 m/S 735 mmHg 92%

    26 September, Donnerstag

    Zeit Temperatur Niederschläge Wind Luftdruck Luftfeuchtigkeit
    00:00 +14°C° 0.1 mm 3 m/S 735 mmHg 92%
    01:00 +13°C° 0.1 mm 3 m/S 734 mmHg 92%
    02:00 +13°C° 0.1 mm 3 m/S 734 mmHg 92%
    03:00 +14°C° 0 mm 2 m/S 734 mmHg 93%
    04:00 +14°C° 0 mm 2 m/S 734 mmHg 94%
    05:00 +13°C° 0 mm 2 m/S 734 mmHg 95%
    06:00 +14°C° 0 mm 2 m/S 734 mmHg 93%
    07:00 +14°C° 0 mm 1 m/S 734 mmHg 91%
    08:00 +15°C° 0 mm 1 m/S 734 mmHg 89%
    09:00 +15°C° 0 mm 1 m/S 735 mmHg 84%
    10:00 +16°C° 0 mm 1 m/S 735 mmHg 79%
    11:00 +18°C° 0 mm 1 m/S 735 mmHg 73%
    12:00 +19°C° 0 mm 1 m/S 735 mmHg 69%
    13:00 +20°C° 0 mm 1 m/S 735 mmHg 64%
    14:00 +21°C° 0 mm 1 m/S 735 mmHg 59%
    15:00 +21°C° 0.1 mm 1 m/S 735 mmHg 61%
    16:00 +20°C° 0.1 mm 1 m/S 735 mmHg 63%
    17:00 +20°C° 0.1 mm 1 m/S 735 mmHg 64%
    18:00 +19°C° 0.1 mm 1 m/S 735 mmHg 71%
    19:00 +18°C° 0.1 mm 1 m/S 736 mmHg 77%
    20:00 +15°C° 0.1 mm 1 m/S 736 mmHg 84%
    21:00 +15°C° 0 mm 1 m/S 736 mmHg 86%
    22:00 +14°C° 0 mm 1 m/S 736 mmHg 89%
    23:00 +14°C° 0 mm 1 m/S 736 mmHg 92%

    27 September, Freitag

    Zeit Temperatur Niederschläge Wind Luftdruck Luftfeuchtigkeit
    00:00 +13°C° 0 mm 1 m/S 736 mmHg 92%
    01:00 +13°C° 0 mm 1 m/S 736 mmHg 93%
    02:00 +13°C° 0 mm 1 m/S 737 mmHg 93%
    03:00 +13°C° 0 mm 1 m/S 737 mmHg 93%
    04:00 +12°C° 0 mm 1 m/S 737 mmHg 94%
    05:00 +12°C° 0 mm 1 m/S 737 mmHg 94%
    06:00 +13°C° 0 mm 1 m/S 737 mmHg 91%
    07:00 +13°C° 0 mm 1 m/S 737 mmHg 88%
    08:00 +14°C° 0 mm 1 m/S 737 mmHg 86%
    09:00 +16°C° 0 mm 2 m/S 738 mmHg 79%
    10:00 +17°C° 0 mm 2 m/S 738 mmHg 72%
    11:00 +19°C° 0 mm 2 m/S 739 mmHg 65%
    12:00 +19°C° 0 mm 2 m/S 739 mmHg 62%
    13:00 +20°C° 0 mm 3 m/S 738 mmHg 59%
    14:00 +20°C° 0 mm 3 m/S 738 mmHg 56%
    15:00 +20°C° 0 mm 3 m/S 738 mmHg 58%
    16:00 +19°C° 0 mm 3 m/S 738 mmHg 60%
    17:00 +19°C° 0 mm 3 m/S 738 mmHg 62%
    18:00 +17°C° 0 mm 2 m/S 738 mmHg 70%
    19:00 +15°C° 0 mm 2 m/S 739 mmHg 77%
    20:00 +14°C° 0 mm 2 m/S 739 mmHg 85%
    21:00 +13°C° 0 mm 2 m/S 739 mmHg 87%
    22:00 +13°C° 0 mm 1 m/S 740 mmHg 89%
    23:00 +12°C° 0 mm 1 m/S 740 mmHg 91%

    28 September, Samstag

    Zeit Temperatur Niederschläge Wind Luftdruck Luftfeuchtigkeit
    00:00 +12°C° 0 mm 1 m/S 740 mmHg 91%
    01:00 +12°C° 0 mm 1 m/S 740 mmHg 92%
    02:00 +11°C° 0 mm 1 m/S 740 mmHg 92%
    03:00 +11°C° 0 mm 1 m/S 740 mmHg 92%
    04:00 +11°C° 0 mm 1 m/S 740 mmHg 92%
    05:00 +11°C° 0 mm 1 m/S 740 mmHg 93%
    06:00 +12°C° 0 mm 1 m/S 740 mmHg 89%
    07:00 +13°C° 0 mm 1 m/S 740 mmHg 85%
    08:00 +14°C° 0 mm 2 m/S 740 mmHg 81%
    09:00 +16°C° 0 mm 2 m/S 741 mmHg 74%
    10:00 +18°C° 0 mm 2 m/S 741 mmHg 66%
    11:00 +19°C° 0 mm 3 m/S 741 mmHg 59%
    12:00 +20°C° 0 mm 2 m/S 741 mmHg 55%
    13:00 +21°C° 0 mm 2 m/S 740 mmHg 52%
    14:00 +23°C° 0 mm 2 m/S 740 mmHg 48%
    15:00 +21°C° 0 mm 2 m/S 740 mmHg 51%
    16:00 +20°C° 0 mm 2 m/S 740 mmHg 54%
    17:00 +21°C° 0 mm 1 m/S 739 mmHg 56%
    18:00 +19°C° 0 mm 1 m/S 739 mmHg 60%
    19:00 +17°C° 0 mm 2 m/S 739 mmHg 64%
    20:00 +16°C° 0 mm 2 m/S 740 mmHg 68%
    21:00 +16°C° 0 mm 2 m/S 740 mmHg 70%
    22:00 +15°C° 0 mm 2 m/S 740 mmHg 73%
    23:00 +15°C° 0 mm 2 m/S 740 mmHg 76%
    Mehr zeigen